Find Starlink 32430

NORAD ID: 62207 Int'l Des: 2024-229 Owner: SPXS Country: US Constellation: starlink operational
LEOCIRCULAR

Live-Position

3D-Globus wird geladen...

Über Starlink 32430

Beschreibung wird geladen...

Nächste Überflüge

Passes for default location (London). Set your location on the main map for personalized predictions.

Höhenverlauf

Loading altitude history...

Zweizeiliger Elementsatz

1 62207U 24229R 26121.87655446 .00018868 00000-0 69380-3 0 9993
2 62207 43.0010 327.0582 0001218 251.7207 108.3512 15.27561700 78739
Epoch: 1. Mai 2026 • Age: 4 hours

Aktueller Status

Höhe 483.2 km
Geschwindigkeit 7.63 km/s
Subsatellitenpunkt 24.43°N, 114.73°W
Startdatum 4. Dez. 2024
Alter 1.4 years
Typ internet

Technische Details

Klassifizierung Payload
Masse 730.00 kg
Trockenmasse 700.00 kg
Gesamtmasse 730.00 kg
Länge 0.30 m
Durchmesser 4.10 m
Spannweite 29.00 m
Form Box + pan
Hersteller SPXS
Bus-Typ Starlink V2M
Phasenstatus In Orbit
Besitzer/Staat SPXS/US

Most Searched